Powrót do katalogu

STARLINK-3604

AktywnyŁącznośćVLEO
NORAD 51815·PAYLOAD·🇺🇸 United States

Wystrzelony Feb 25, 2022 z Vandenberg Space Force Base

Loading…

Następne Przeloty (najbliższe 24 godziny)

TLE

ŚwieżeSource: CelesTrak SupGP

Epoka: Sep 14, 2026, 21:07 UTC

1 51815C 22017AZ  26257.88034722 -.00012780  00000+0 -41098-3 0  2579
2 51815  53.1586 186.5062 0001342  90.1302 300.5491 15.31707955    19

Śledź STARLINK-3604 w czasie rzeczywistym z AllMySat

Download on the App Store